Fort Sill, OK

7:27 PM CDT on April 23, 2018 (GMT -0500)
Post Army Air Field

Weather History for KFSI - January, 2014

Change the Weather History Date:

Friday, January 17, 2014

  Actual Average Record
Temperature  
Mean Temperature 44 °F -  
Max Temperature 53 °F 52 °F 72 °F (1951)
Min Temperature 34 °F 27 °F 6 °F (1953)
Degree Days  
Heating Degree Days 22    
Moisture  
Dew Point 13 °F    
Average Humidity 30    
Maximum Humidity 46    
Minimum Humidity 17    
Precipitation  
Precipitation 0.00 in - - ()
Sea Level Pressure  
Sea Level Pressure 30.25 in    
Wind  
Wind Speed 10 mph (NW)    
Max Wind Speed 17 mph    
Max Gust Speed 25 mph    
Visibility 10 miles    
Events      
Averages and records for this station are not official NWS values.
T = Trace of Precipitation, MM = Missing Value Source: NWS Daily Summary

Daily Weather History Graph

Daily Weather History Graph

Search for Another Location

Airport or City:

Astronomy

Jan. 17, 2014 Rise Set
Actual Time 7:39 AM CST 5:48 PM CST
Civil Twilight 7:12 AM CST 6:15 PM CST
Nautical Twilight 6:41 AM CST 6:46 PM CST
Astronomical Twilight 6:11 AM CST 7:16 PM CST
Moon 7:29 PM CST (1/17) 8:13 AM CST (1/17)
Length of Visible Light 11h 02m
Length of Day
10h 08m
Full, 98% of the Moon is Illuminated
Jan 17
Full
Jan 23
Last Quarter
Jan 30
New
Feb 6
First Quarter
Feb 14
Full

Hourly Weather History & Observations

Time (CST) Temp. Windchill Dew Point Humidity Pressure Visibility Wind Dir Wind Speed Gust Speed Precip Events Conditions
12:58 AM 49.3 °F - 6.3 °F 17% 30.22 in 10.0 mi NNW 17.3 mph 24.2 mph N/A   Partly Cloudy
1:58 AM 46.9 °F - 7.3 °F 20% 30.23 in 10.0 mi North 13.8 mph - N/A   Partly Cloudy
2:15 AM 44.6 °F 38.4 °F 10.4 °F 25% 30.26 in 10.0 mi NE 12.7 mph 25.3 mph N/A   Scattered Clouds
2:58 AM 42.4 °F 36.1 °F 13.3 °F 31% 30.29 in 10.0 mi NNE 11.5 mph - N/A   Mostly Cloudy
3:58 AM 40.3 °F 33.9 °F 14.4 °F 35% 30.29 in 10.0 mi North 10.4 mph - N/A   Mostly Cloudy
4:58 AM 38.8 °F 33.8 °F 14.0 °F 36% 30.30 in 10.0 mi North 6.9 mph - N/A   Overcast
5:58 AM 37.2 °F 32.6 °F 14.0 °F 39% 30.31 in 10.0 mi North 5.8 mph - N/A   Overcast
6:58 AM 36.1 °F 30.6 °F 13.1 °F 39% 30.32 in 10.0 mi North 6.9 mph - N/A   Overcast
7:58 AM 34.3 °F 31.4 °F 10.4 °F 37% 30.35 in 10.0 mi NW 3.5 mph - N/A   Clear
8:58 AM 37.9 °F 33.5 °F 10.8 °F 33% 30.35 in 10.0 mi NNW 5.8 mph - N/A   Clear
9:58 AM 41.5 °F 35.9 °F 9.5 °F 27% 30.36 in 10.0 mi North 9.2 mph - N/A   Clear
10:58 AM 44.2 °F 39.7 °F 11.5 °F 26% 30.35 in 10.0 mi North 8.1 mph - N/A   Clear
11:58 AM 47.1 °F - 12.9 °F 25% 30.31 in 10.0 mi NNW 5.8 mph - N/A   Clear
12:58 PM 49.3 °F - 10.8 °F 21% 30.26 in 10.0 mi NNW 8.1 mph - N/A   Clear
1:58 PM 51.3 °F - 12.2 °F 21% 30.23 in 10.0 mi North 8.1 mph - N/A   Clear
2:58 PM 53.1 °F - 14.2 °F 21% 30.22 in 10.0 mi West 8.1 mph - N/A   Clear
3:58 PM 52.7 °F - 14.9 °F 22% 30.21 in 10.0 mi WSW 9.2 mph - N/A   Clear
4:58 PM 51.3 °F - 15.1 °F 24% 30.21 in 10.0 mi West 9.2 mph - N/A   Clear
5:58 PM 47.7 °F - 16.2 °F 28% 30.21 in 10.0 mi SW 5.8 mph - N/A   Clear
6:58 PM 43.0 °F 38.2 °F 16.2 °F 34% 30.19 in 10.0 mi SSW 8.1 mph - N/A   Clear
7:58 PM 40.5 °F 36.5 °F 16.9 °F 39% 30.17 in 10.0 mi SSW 5.8 mph - N/A   Clear
8:58 PM 41.7 °F 35.6 °F 15.6 °F 35% 30.16 in 10.0 mi SSW 10.4 mph - N/A   Clear
9:58 PM 40.6 °F 35.4 °F 15.8 °F 37% 30.14 in 10.0 mi SSW 8.1 mph - N/A   Clear
10:58 PM 38.7 °F 32.4 °F 15.8 °F 39% 30.13 in 10.0 mi SSW 9.2 mph - N/A   Clear
11:58 PM 36.0 °F 33.3 °F 16.7 °F 46% 30.11 in 10.0 mi SW 3.5 mph - N/A   Clear